Weather History for Nogales, AZ

Change the Weather History Date:

Sunday, May 12, 2013

  Actual Average (KTUS) Record (KTUS)
Temperature  
Mean Temperature 70 °F 75 °F  
Max Temperature 84 °F 90 °F 107 °F (1996)
Min Temperature 57 °F 59 °F 38 °F (1933)
Degree Days  
Heating Degree Days 0 0  
Month to date heating degree days 3  
Since 1 July heating degree days 1509  
Cooling Degree Days 6 10  
Month to date cooling degree days 102  
Year to date cooling degree days 256  
Growing Degree Days 20 (Base 50)    
Moisture  
Dew Point 27 °F    
Average Humidity 21    
Maximum Humidity 42    
Minimum Humidity 9    
Precipitation  
Precipitation 0.00 in 0.01 in 0.15 in (1957)
Month to date precipitation 0.08  
Year to date precipitation 2.92  
Sea Level Pressure  
Sea Level Pressure 29.97 in    
Wind  
Wind Speed 8 mph (ENE)    
Max Wind Speed 18 mph    
Max Gust Speed 37 mph    
Visibility 10 miles    
Events      
T = Trace of Precipitation, MM = Missing Value Source: NWS Daily Summary

Daily Weather History Graph

Daily Weather History Graph

Search for Another Location

Airport:

Trip Planner

Search our weather history database for the weather conditions in past years. The results will help you decide how hot, cold, wet, or windy it might be!

Date:

Astronomy

May. 12, 2013 Rise Set
Actual Time 5:29 AM MST 7:10 PM MST
Civil Twilight 5:02 AM MST 7:37 PM MST
Nautical Twilight 4:30 AM MST 8:09 PM MST
Astronomical Twilight 3:57 AM MST 8:42 PM MST
Moon 7:29 AM MST (5/12) 9:38 PM MST (5/12)
Length of Visible Light 14h 34m
Length of Day
13h 41m
Waxing Crescent, 7% of the Moon is Illuminated
May 12
Waxing Crescent
May 17
First Quarter
May 24
Full
May 31
Last Quarter
Jun 8
New

Hourly Weather History & Observations

Time (MST) Temp. Dew Point Humidity Pressure Visibility Wind Dir Wind Speed Gust Speed Precip Events Conditions
12:54 AM 64.9 °F 33.1 °F 31% 30.02 in 10.0 mi East 4.6 mph - N/A   Clear
1:54 AM 64.9 °F 32.0 °F 29% 30.01 in 10.0 mi East 6.9 mph - N/A   Clear
2:54 AM 66.0 °F 33.1 °F 29% 30.01 in 10.0 mi Variable 3.5 mph - N/A   Clear
3:54 AM 60.1 °F 34.0 °F 38% 30.02 in 10.0 mi North 6.9 mph - N/A   Clear
4:54 AM 59.0 °F 34.0 °F 39% 30.02 in 10.0 mi NNE 5.8 mph - N/A   Clear
5:54 AM 57.0 °F 34.0 °F 42% 30.04 in 10.0 mi ENE 5.8 mph - N/A   Clear
6:54 AM 64.9 °F 36.0 °F 34% 30.04 in 10.0 mi Calm Calm - N/A   Clear
7:54 AM 70.0 °F 35.1 °F 28% 30.03 in 10.0 mi WNW 10.4 mph - N/A   Clear
8:54 AM 75.0 °F 30.9 °F 20% 30.02 in 10.0 mi ENE 15.0 mph 26.5 mph N/A   Clear
9:54 AM 75.9 °F 28.9 °F 18% 30.01 in 10.0 mi East 18.4 mph 36.8 mph N/A   Clear
10:54 AM 78.1 °F 30.0 °F 17% 29.99 in 10.0 mi East 17.3 mph 31.1 mph N/A   Clear
11:54 AM 79.0 °F 28.9 °F 16% 29.98 in 10.0 mi ESE 17.3 mph 21.9 mph N/A   Clear
12:54 PM 82.0 °F 28.0 °F 14% 29.96 in 10.0 mi ESE 10.4 mph 19.6 mph N/A   Scattered Clouds
1:54 PM 84.9 °F 24.1 °F 11% 29.93 in 10.0 mi NE 17.3 mph 28.8 mph N/A   Partly Cloudy
2:54 PM 84.0 °F 23.0 °F 11% 29.90 in 10.0 mi East 10.4 mph 28.8 mph N/A   Clear
3:54 PM 84.9 °F 19.0 °F 9% 29.89 in 10.0 mi ENE 15.0 mph 28.8 mph N/A   Clear
4:54 PM 82.9 °F 19.0 °F 9% 29.89 in 10.0 mi NE 16.1 mph 25.3 mph N/A   Clear
5:54 PM 80.1 °F 18.0 °F 10% 29.90 in 10.0 mi East 18.4 mph 24.2 mph N/A   Clear
6:54 PM 79.0 °F 21.9 °F 12% 29.89 in 10.0 mi ENE 12.7 mph - N/A   Clear
7:54 PM 75.0 °F 21.0 °F 13% 29.91 in 10.0 mi ESE 6.9 mph - N/A   Clear
8:54 PM 73.9 °F 21.9 °F 14% 29.93 in 10.0 mi East 6.9 mph - N/A   Clear
9:54 PM 69.1 °F 23.0 °F 18% 29.96 in 10.0 mi SE 6.9 mph - N/A   Clear
10:54 PM 68.0 °F 25.0 °F 20% 29.97 in 10.0 mi East 4.6 mph - N/A   Clear
11:54 PM 64.9 °F 24.1 °F 21% 29.98 in 10.0 mi Calm Calm - N/A   Clear